QPF
0.00 0.00 0.00 0.00 0.00 0.00 0.00 0.00 0.00 0.00 0.00 0.00 0.00 0.00 0.00 0.00 0.00 0.00 0.00 0.00 0.00 0.00 0.00 0.00 0.00 0.00 0.00 0.00 0.00 0.00 0.00 0.00 0.00 0.00 0.00 0.00 0.00 0.00 0.00 0.00 0.00 0.00 0.00 0.00
0.00 0.00 0.00 0.00 0.00 0.00 0.00 0.00 0.00 0.00 0.00 0.00 0.00 0.00 0.00 0.00 0.00 0.00 0.00 0.00 0.00 0.00 0.00 0.00 0.00 0.00 0.00 0.00 0.00 0.00 0.00 0.00 0.00 0.00 0.00 0.00 0.00 0.00 0.00 0.00 0.00 0.00 0.00 0.00
0.00 0.00 0.00 0.00 0.00 0.00 0.00 0.00 0.00 0.00 0.00 0.00 0.00 0.00 0.00 0.00 0.00 0.00 0.00 0.00 0.00 0.00 0.00 0.00 0.00 0.00 0.00 0.00 0.00 0.00 0.00 0.00 0.00 0.00 0.00 0.00 0.00 0.00 0.00 0.00 0.00 0.00 0.00 0.00
0.00 0.00 0.00 0.00 0.00 0.00 0.00 0.00 0.00 0.00 0.00 0.00 0.00 0.00 0.00 0.00 0.00 0.00 0.00 0.00 0.00 0.00 0.00 0.00 0.00 0.00 0.00 0.00 0.00 0.00 0.00 0.00 0.00 0.00 0.00 0.00 0.00 0.00 0.00 0.00 0.00 0.00 0.00 0.00
0.00 0.00 0.00 0.00 0.00 0.00 0.00 0.00 0.00 0.00 0.00 0.00 0.00 0.00 0.00 0.00 0.00 0.00 0.00 0.00 0.00 0.00 0.00 0.00 0.00 0.00 0.00 0.00 0.00 0.00 0.00 0.00 0.00 0.00 0.00 0.00 0.00 0.00 0.00 0.00 0.00 0.00 0.00 0.00
0.00 0.00 0.00 0.00 0.00 0.00 0.00 0.00 0.00 0.00 0.00 0.00 0.00 0.00 0.00 0.00 0.00 0.00 0.00 0.00 0.00 0.00 0.00 0.00 0.00 0.00 0.00 0.00 0.00 0.00 0.00 0.00 0.00 0.00 0.00 0.00 0.00 0.00 0.00 0.00 0.00 0.00 0.00 0.00
0.00 0.00 0.00 0.00 0.00 0.00 0.00 0.00 0.00 0.00 0.00 0.00 0.00 0.00 0.00 0.00 0.00 0.00 0.00 0.00 0.00 0.00 0.00 0.00 0.00 0.00 0.00 0.00 0.00 0.00 0.00 0.00 0.00 0.00 0.00 0.00 0.00 0.00 0.00 0.00 0.00 0.00 0.00 0.00
0.00 0.00 0.00 0.00 0.00 0.00 0.00 0.00 0.00 0.00 0.00 0.00 0.00 0.00 0.00 0.00 0.00 0.00 0.00 0.00 0.00 0.00 0.00 0.00 0.00 0.00 0.00 0.00 0.00 0.00 0.00 0.00 0.00 0.00 0.00 0.00 0.00 0.00 0.00 0.00 0.00 0.00 0.00 0.00
0.00 0.00 0.00 0.00 0.00 0.00 0.00 0.00 0.00 0.00 0.00 0.00 0.00 0.00 0.00 0.00 0.00 0.00 0.00 0.00 0.00 0.00 0.00 0.00 0.00 0.03 0.09 0.06 0.01 0.00 0.00 0.00 0.00 0.00 0.00 0.00 0.00 0.00 0.00 0.00 0.00 0.00 0.00 0.00
0.00 0.00 0.00 0.00 0.00 0.00 0.00 0.00 0.00 0.00 0.00 0.00 0.00 0.00 0.00 0.00 0.00 0.00 0.00 0.00 0.00 0.00 0.00 0.00 0.01 0.05 0.15 0.19 0.10 0.09 0.02 0.01 0.00 0.00 0.00 0.00 0.00 0.00 0.00 0.00 0.00 0.00 0.00 0.00
0.00 0.00 0.00 0.00 0.00 0.00 0.00 0.00 0.00 0.00 0.00 0.00 0.00 0.00 0.00 0.00 0.00 0.00 0.00 0.00 0.00 0.00 0.00 0.00 0.00 0.00 0.05 0.11 0.12 0.12 0.12 0.08 0.03 0.01 0.03 0.02 0.00 0.00 0.00 0.00 0.00 0.04 0.01 0.00
0.00 0.00 0.00 0.00 0.00 0.00 0.00 0.00 0.00 0.00 0.00 0.00 0.00 0.00 0.00 0.00 0.00 0.00 0.00 0.00 0.00 0.00 0.00 0.00 0.00 0.00 0.00 0.01 0.10 0.18 0.14 0.07 0.09 0.09 0.04 0.06 0.08 0.01 0.00 0.00 0.00 0.02 0.04 0.02
0.00 0.00 0.00 0.00 0.00 0.00 0.00 0.00 0.00 0.00 0.00 0.00 0.00 0.00 0.00 0.00 0.00 0.00 0.00 0.00 0.00 0.00 0.00 0.00 0.00 0.00 0.00 0.03 0.08 0.26 0.23 0.17 0.20 0.15 0.09 0.13 0.50 0.12 0.06 0.01 0.02 0.04 0.05 0.10
0.00 0.00 0.00 0.00 0.00 0.00 0.00 0.00 0.00 0.00 0.00 0.00 0.00 0.00 0.00 0.00 0.00 0.00 0.00 0.00 0.00 0.00 0.00 0.00 0.00 0.00 0.03 0.07 0.11 0.15 0.20 0.29 0.39 0.58 0.95 0.68 0.43 0.23 0.15 0.19 0.24 0.37 0.36 0.30
0.00 0.00 0.00 0.00 0.00 0.00 0.00 0.00 0.00 0.00 0.00 0.00 0.00 0.00 0.00 0.00 0.00 0.00 0.00 0.00 0.00 0.00 0.00 0.00 0.00 0.00 0.00 0.02 0.08 0.12 0.13 0.17 0.22 0.41 0.72 0.57 0.29 0.32 0.17 0.14 0.18 0.17 0.29 0.32
0.00 0.00 0.00 0.00 0.00 0.00 0.00 0.00 0.00 0.00 0.00 0.00 0.00 0.00 0.02 0.00 0.00 0.00 0.00 0.00 0.00 0.01 0.03 0.02 0.00 0.00 0.00 0.00 0.00 0.01 0.02 0.06 0.10 0.08 0.12 0.23 0.21 0.20 0.26 0.23 0.23 0.22 0.17 0.16
0.00 0.00 0.00 0.00 0.00 0.00 0.00 0.00 0.00 0.00 0.00 0.00 0.00 0.00 0.02 0.00 0.00 0.00 0.00 0.00 0.00 0.01 0.02 0.04 0.02 0.00 0.00 0.00 0.00 0.00 0.00 0.00 0.00 0.01 0.01 0.02 0.06 0.06 0.05 0.21 0.24 0.16 0.19 0.11
0.00 0.00 0.00 0.00 0.00 0.00 0.00 0.00 0.00 0.00 0.00 0.00 0.00 0.00 0.00 0.01 0.00 0.03 0.02 0.03 0.01 0.04 0.00 0.03 0.06 0.02 0.00 0.00 0.00 0.00 0.00 0.00 0.00 0.00 0.00 0.00 0.00 0.00 0.00 0.00 0.03 0.02 0.04 0.05
0.00 0.00 0.00 0.00 0.00 0.00 0.00 0.00 0.00 0.00 0.00 0.00 0.00 0.00 0.00 0.01 0.00 0.02 0.01 0.00 0.00 0.03 0.02 0.01 0.03 0.04 0.05 0.06 0.04 0.00 0.00 0.00 0.00 0.00 0.00 0.00 0.00 0.00 0.00 0.00 0.00 0.00 0.00 0.00
0.00 0.00 0.01 0.00 0.00 0.00 0.00 0.00 0.00 0.00 0.00 0.00 0.00 0.01 0.00 0.02 0.00 0.00 0.00 0.02 0.04 0.01 0.00 0.00 0.00 0.00 0.00 0.00 0.00 0.00 0.00 0.00 0.00 0.00 0.00 0.00 0.00 0.00 0.00 0.00 0.00 0.00 0.00 0.01
0.00 0.01 0.04 0.04 0.01 0.00 0.00 0.00 0.00 0.00 0.00 0.00 0.01 0.05 0.03 0.00 0.00 0.00 0.00 0.02 0.06 0.03 0.04 0.01 0.01 0.01 0.00 0.00 0.00 0.00 0.00 0.00 0.00 0.00 0.00 0.00 0.00 0.00 0.00 0.00 0.00 0.01 0.01 0.03
0.04 0.05 0.04 0.03 0.01 0.00 0.00 0.00 0.00 0.00 0.01 0.03 0.03 0.08 0.11 0.08 0.00 0.02 0.10 0.20 0.25 0.19 0.11 0.00 0.00 0.00 0.00 0.00 0.00 0.00 0.00 0.00 0.00 0.00 0.00 0.00 0.00 0.00 0.00 0.00 0.00 0.00 0.00 0.00
0.03 0.03 0.02 0.01 0.00 0.00 0.00 0.00 0.00 0.00 0.00 0.01 0.02 0.05 0.09 0.08 0.01 0.02 0.09 0.11 0.13 0.11 0.04 0.01 0.00 0.00 0.00 0.00 0.00 0.00 0.00 0.00 0.00 0.00 0.00 0.00 0.00 0.00 0.00 0.00 0.00 0.00 0.00 0.00
0.01 0.01 0.02 0.02 0.00 0.00 0.00 0.00 0.01 0.00 0.00 0.01 0.02 0.02 0.04 0.06 0.04 0.05 0.09 0.08 0.09 0.12 0.09 0.01 0.00 0.00 0.00 0.00 0.00 0.00 0.00 0.00 0.00 0.00 0.00 0.00 0.00 0.00 0.00 0.00 0.00 0.00 0.00 0.00
0.00 0.01 0.01 0.01 0.01 0.00 0.00 0.00 0.00 0.00 0.01 0.03 0.04 0.08 0.05 0.05 0.04 0.06 0.07 0.07 0.09 0.08 0.05 0.01 0.00 0.00 0.00 0.00 0.00 0.00 0.00 0.00 0.00 0.00 0.00 0.00 0.00 0.00 0.00 0.00 0.00 0.00 0.00 0.00
0.00 0.01 0.01 0.01 0.00 0.00 0.00 0.01 0.00 0.00 0.04 0.09 0.10 0.03 0.02 0.03 0.01 0.04 0.08 0.08 0.05 0.03 0.01 0.02 0.02 0.00 0.00 0.00 0.00 0.00 0.00 0.00 0.00 0.00 0.00 0.00 0.00 0.00 0.00 0.00 0.00 0.00 0.00 0.00
MSLP
1004.41 1005.48 1005.58 1005.31 1005.77 1005.62 1005.89 1005.72 1005.26 1003.96 1002.86 1002.70 1001.85 1001.50 1000.71 999.85 999.57 999.73 1000.07 1000.86 1000.77 1000.66 999.56 999.84 1000.03 1001.00 1002.84 1003.74 1004.11 1004.98 1005.78 1006.43 1007.18 1007.88 1008.38 1008.98 1009.43 1010.08 1010.35 1010.53 1010.57 1011.08 1011.54 1011.81
1005.12 1005.23 1004.30 1004.24 1004.68 1004.91 1005.08 1005.21 1004.52 1003.46 1002.42 1002.19 1002.19 1001.91 1000.82 1000.34 999.96 999.75 999.63 1000.36 999.85 999.93 999.94 1000.00 1000.12 1001.22 1001.93 1002.38 1003.24 1004.06 1004.77 1005.55 1006.24 1006.86 1007.35 1007.92 1008.66 1009.59 1009.83 1010.09 1010.25 1010.49 1010.92 1011.21
1004.97 1004.16 1003.44 1003.84 1003.64 1003.84 1003.86 1004.26 1003.85 1003.25 1002.72 1002.41 1002.57 1002.58 1001.73 1000.56 1000.09 999.98 999.71 999.72 1000.02 1000.42 1000.33 999.72 1000.32 1000.21 1000.98 1002.06 1002.29 1002.86 1003.66 1004.57 1005.44 1006.08 1007.09 1007.80 1008.49 1009.07 1009.43 1009.65 1009.86 1010.03 1010.17 1010.65
1003.89 1003.11 1003.22 1002.95 1002.70 1002.58 1002.80 1002.57 1002.74 1002.97 1003.45 1003.84 1003.47 1003.85 1002.87 1001.71 1001.06 1000.30 1000.09 1000.00 1000.55 1000.87 1000.16 999.08 999.47 999.95 1000.11 1000.57 1001.10 1001.91 1003.05 1003.48 1004.40 1005.44 1006.25 1006.88 1007.21 1007.78 1007.87 1008.40 1009.02 1009.56 1009.75 1010.21
1003.65 1003.15 1002.72 1002.52 1002.05 1001.88 1002.17 1001.97 1002.63 1003.40 1004.18 1004.85 1004.14 1005.11 1003.44 1003.09 1002.82 1001.82 1000.99 1000.82 1001.04 1001.44 1001.05 1000.70 1001.21 1001.32 1000.82 1000.95 1001.42 1001.64 1001.90 1003.10 1003.39 1004.41 1005.25 1006.13 1006.82 1007.11 1007.58 1008.06 1008.65 1009.00 1009.41 1009.70
1003.35 1002.74 1002.53 1001.61 1001.50 1001.59 1001.70 1002.36 1003.40 1004.52 1005.60 1006.36 1005.26 1005.89 1006.02 1005.80 1005.26 1003.44 1002.62 1002.15 1002.05 1002.55 1002.61 1002.82 1001.58 1001.58 999.66 999.48 1000.49 1001.32 1002.22 1002.24 1002.99 1003.81 1004.82 1005.38 1006.05 1006.64 1007.25 1007.74 1008.25 1008.64 1008.90 1009.20
1003.63 1003.18 1002.54 1002.19 1002.07 1001.99 1002.95 1004.11 1005.23 1006.27 1007.00 1007.36 1005.97 1006.50 1006.65 1006.12 1005.31 1005.13 1004.61 1003.95 1004.17 1003.76 1003.45 1003.20 1001.93 1000.96 999.81 999.95 1000.81 1001.36 1001.71 1002.44 1002.64 1003.31 1004.11 1004.76 1005.37 1006.16 1006.64 1007.08 1007.58 1008.22 1008.50 1008.71
1004.54 1003.78 1003.20 1003.00 1003.65 1004.02 1003.90 1004.69 1006.17 1006.79 1007.51 1007.07 1006.03 1006.48 1006.52 1006.12 1005.73 1005.64 1005.08 1005.26 1004.68 1004.70 1004.08 1002.78 1002.40 1000.13 1000.16 1001.11 1001.77 1002.25 1003.39 1004.15 1003.63 1002.43 1003.25 1004.16 1004.97 1005.56 1006.23 1006.75 1007.09 1007.40 1007.68 1007.85
1004.86 1004.59 1003.57 1003.52 1003.65 1004.10 1004.73 1005.29 1005.29 1006.44 1007.03 1007.32 1006.95 1006.72 1006.24 1005.90 1005.52 1005.23 1005.23 1005.70 1005.22 1005.09 1004.77 1003.95 1003.25 1001.79 1001.26 1001.12 1002.51 1003.47 1003.48 1004.07 1004.18 1004.84 1005.18 1004.11 1004.64 1005.17 1005.76 1006.39 1006.59 1006.95 1007.19 1007.43
1005.25 1005.54 1004.96 1004.23 1003.88 1004.47 1005.50 1005.23 1005.72 1006.91 1007.88 1008.19 1007.65 1007.26 1006.51 1005.98 1005.74 1005.59 1005.44 1005.79 1005.64 1005.01 1004.51 1003.74 1002.76 1002.52 1001.89 1001.37 1002.00 1002.81 1003.74 1004.08 1004.25 1004.03 1004.11 1004.60 1004.80 1004.73 1005.10 1005.72 1006.23 1006.44 1006.72 1007.03
1005.65 1006.46 1006.40 1005.60 1005.81 1005.88 1005.44 1006.17 1006.86 1007.81 1008.52 1008.79 1008.40 1007.60 1006.02 1006.18 1006.41 1006.36 1006.27 1006.13 1005.55 1004.56 1004.78 1004.16 1003.23 1002.87 1002.36 1002.60 1000.31 1002.00 1003.32 1003.92 1003.96 1003.28 1003.58 1003.80 1004.33 1004.60 1004.31 1004.78 1005.38 1005.60 1005.96 1006.41
1005.88 1007.12 1007.68 1007.29 1006.29 1005.82 1006.04 1006.68 1007.35 1008.36 1008.81 1008.83 1008.54 1007.21 1006.01 1006.60 1006.79 1007.09 1006.79 1006.88 1005.97 1004.91 1004.89 1004.34 1003.65 1003.19 1003.51 1003.99 1000.40 1001.43 1001.94 1002.47 1003.34 1002.20 1002.69 1003.10 1003.31 1004.15 1003.98 1003.53 1003.94 1004.60 1005.24 1005.74
1006.11 1007.65 1008.42 1008.18 1007.35 1006.21 1006.60 1006.74 1007.27 1007.96 1008.60 1008.83 1008.81 1007.55 1007.16 1006.92 1007.23 1007.35 1006.87 1006.46 1006.22 1005.91 1005.71 1005.04 1004.08 1002.88 1002.15 1001.89 1000.55 1000.30 1001.53 1002.01 1002.02 1001.90 1001.34 1001.86 1002.35 1002.74 1002.84 1003.19 1003.51 1004.19 1004.91 1005.40
1006.87 1008.77 1009.38 1009.67 1009.14 1008.29 1007.62 1007.19 1007.11 1007.71 1008.50 1008.12 1008.04 1007.48 1007.08 1007.32 1007.23 1007.11 1006.71 1006.17 1005.84 1005.82 1005.91 1005.35 1004.72 1004.24 1003.39 1002.67 1001.74 1001.43 1000.75 1001.27 1001.96 1001.34 1001.96 1002.10 1003.07 1003.33 1003.90 1004.71 1004.67 1004.25 1004.62 1005.31
1008.29 1009.44 1009.58 1009.47 1008.86 1008.24 1007.74 1007.38 1007.25 1007.50 1007.42 1007.67 1007.39 1007.41 1007.40 1007.45 1007.33 1007.00 1006.67 1006.36 1005.85 1005.19 1004.61 1005.04 1004.48 1004.50 1004.69 1004.32 1004.77 1003.44 1002.98 1004.14 1004.24 1002.82 1002.60 1001.73 1003.67 1004.99 1004.60 1004.74 1005.14 1005.44 1005.24 1005.14
1009.03 1009.73 1009.87 1009.81 1009.00 1008.34 1007.84 1007.67 1007.46 1007.41 1007.41 1007.54 1007.63 1007.56 1007.50 1007.28 1007.22 1007.24 1006.73 1006.07 1005.48 1004.93 1004.37 1004.63 1004.66 1003.76 1004.24 1004.54 1004.09 1003.79 1004.36 1005.00 1004.25 1003.68 1003.81 1003.60 1003.04 1001.45 1004.09 1005.23 1004.94 1005.46 1005.32 1004.83
1009.76 1010.07 1010.51 1010.16 1009.58 1008.91 1008.34 1008.04 1008.02 1007.98 1007.96 1008.01 1008.02 1007.59 1007.61 1007.51 1007.52 1007.77 1007.33 1006.55 1006.05 1005.30 1005.03 1004.73 1004.50 1004.76 1004.56 1005.08 1005.16 1005.29 1005.29 1005.09 1005.11 1004.81 1004.68 1004.41 1003.94 1003.28 1002.68 1004.97 1005.73 1005.48 1004.68 1004.35
1009.37 1010.19 1010.68 1010.69 1010.27 1009.52 1008.14 1007.98 1008.10 1008.20 1008.21 1008.20 1008.20 1007.82 1007.85 1007.71 1007.65 1007.87 1007.37 1006.93 1006.42 1005.61 1005.01 1005.00 1005.11 1005.43 1005.03 1005.18 1005.50 1005.54 1005.41 1004.88 1004.57 1004.57 1005.24 1005.28 1004.47 1004.53 1004.91 1005.21 1005.79 1005.76 1005.31 1004.90
1008.25 1009.53 1010.78 1011.13 1010.68 1009.53 1008.93 1008.19 1008.28 1008.56 1008.51 1008.68 1008.53 1008.18 1007.85 1007.84 1007.35 1007.40 1007.60 1006.87 1006.45 1006.21 1005.65 1005.02 1005.18 1005.58 1005.40 1005.21 1005.30 1005.48 1005.43 1005.02 1004.60 1004.30 1004.26 1004.45 1005.18 1005.17 1004.13 1005.06 1006.06 1005.49 1005.01 1005.08
1008.63 1009.20 1010.44 1011.51 1010.92 1009.74 1008.34 1007.98 1008.07 1008.80 1008.89 1008.77 1008.68 1008.18 1007.96 1007.92 1007.75 1007.56 1007.54 1007.15 1006.32 1005.97 1005.81 1005.68 1005.84 1005.44 1005.52 1005.78 1005.62 1005.75 1006.01 1005.78 1004.97 1004.61 1004.65 1004.41 1004.05 1004.02 1004.52 1005.49 1005.61 1005.04 1004.08 1004.03
1010.19 1010.63 1011.07 1011.25 1011.14 1009.65 1008.14 1007.86 1008.12 1008.88 1009.19 1008.37 1008.23 1007.86 1007.31 1008.05 1007.76 1007.44 1007.18 1007.00 1006.48 1006.14 1006.28 1006.20 1005.90 1005.57 1005.82 1006.02 1006.22 1006.21 1006.16 1006.13 1005.59 1004.95 1005.27 1005.00 1005.02 1004.88 1004.58 1005.14 1005.08 1005.04 1004.58 1003.59
1011.13 1011.30 1011.31 1011.25 1010.69 1009.41 1007.81 1008.06 1008.15 1008.01 1008.06 1007.90 1007.97 1007.60 1007.46 1007.09 1007.04 1006.98 1007.23 1007.08 1006.79 1006.27 1006.13 1006.01 1005.63 1005.92 1006.18 1006.45 1006.72 1006.49 1006.62 1006.71 1006.15 1006.26 1006.10 1005.85 1006.16 1005.77 1005.63 1005.62 1005.52 1004.89 1004.48 1003.94
1010.67 1010.18 1010.94 1010.66 1009.20 1008.10 1007.61 1007.34 1007.11 1007.14 1007.45 1007.33 1007.32 1007.08 1007.02 1007.06 1007.17 1006.79 1007.17 1006.92 1006.33 1006.34 1006.46 1006.37 1006.37 1007.02 1007.02 1007.23 1007.01 1007.22 1007.05 1007.02 1006.62 1006.76 1006.74 1006.54 1006.50 1005.93 1005.96 1005.86 1005.93 1005.40 1004.94 1004.70
1009.75 1009.19 1009.68 1009.47 1008.21 1007.67 1007.04 1006.75 1006.77 1006.84 1006.91 1006.72 1006.60 1006.65 1006.63 1006.75 1006.88 1007.08 1007.26 1007.09 1006.85 1006.95 1006.97 1006.87 1006.70 1007.02 1007.45 1007.40 1007.55 1007.60 1007.36 1007.14 1006.90 1007.29 1007.26 1007.11 1006.67 1006.28 1006.19 1006.41 1006.12 1005.99 1005.54 1005.52
1009.10 1008.67 1008.61 1008.69 1008.16 1007.41 1006.82 1006.56 1006.52 1006.55 1006.62 1006.69 1006.49 1006.45 1006.42 1006.58 1006.89 1007.14 1007.56 1007.51 1007.46 1007.26 1007.40 1007.36 1007.14 1007.27 1007.57 1007.76 1007.63 1007.69 1007.59 1007.45 1007.33 1007.28 1007.23 1006.92 1006.59 1006.63 1006.70 1006.52 1006.32 1006.06 1005.96 1006.07
1008.44 1008.00 1008.17 1008.19 1007.58 1007.61 1007.29 1006.92 1007.08 1007.22 1007.18 1007.29 1006.83 1006.74 1006.70 1006.78 1007.09 1007.36 1007.63 1007.63 1007.59 1007.65 1007.74 1007.66 1007.68 1007.58 1007.90 1007.90 1007.76 1007.57 1007.40 1007.34 1007.22 1007.25 1007.25 1007.08 1007.00 1007.22 1006.99 1006.70 1006.56 1006.20 1006.26 1006.58
Thickness
5821 5793 5778 5790 5790 5795 5787 5779 5775 5796 5813 5802 5804 5802 5819 5836 5842 5840 5835 5831 5836 5843 5864 5867 5873 5866 5852 5851 5850 5845 5839 5835 5830 5823 5816 5811 5804 5797 5794 5793 5791 5785 5781 5778
5796 5777 5806 5813 5803 5795 5787 5771 5773 5795 5811 5807 5795 5798 5818 5827 5831 5840 5840 5829 5839 5844 5848 5853 5859 5855 5853 5853 5854 5849 5845 5840 5834 5830 5826 5819 5812 5803 5799 5794 5792 5788 5783 5779
5780 5796 5819 5808 5801 5790 5785 5767 5771 5779 5796 5804 5792 5776 5790 5816 5825 5831 5840 5844 5840 5831 5830 5844 5845 5854 5856 5849 5852 5856 5850 5844 5838 5834 5825 5817 5810 5805 5800 5796 5793 5791 5787 5783
5794 5813 5803 5797 5796 5800 5780 5805 5798 5789 5769 5745 5784 5726 5772 5791 5802 5817 5825 5831 5823 5821 5830 5845 5850 5847 5852 5855 5859 5856 5852 5849 5843 5836 5828 5821 5815 5808 5811 5805 5800 5794 5790 5785
5783 5796 5792 5788 5795 5807 5787 5810 5797 5787 5765 5757 5768 5734 5755 5776 5776 5793 5811 5818 5815 5810 5815 5820 5821 5826 5839 5844 5847 5850 5855 5846 5846 5840 5833 5826 5817 5815 5812 5808 5800 5797 5793 5789
5795 5813 5804 5804 5812 5809 5812 5794 5773 5760 5739 5715 5748 5732 5725 5732 5744 5774 5786 5795 5801 5798 5797 5798 5810 5814 5840 5853 5849 5843 5842 5848 5844 5841 5833 5829 5822 5816 5809 5806 5801 5797 5795 5792
5784 5790 5804 5806 5785 5796 5777 5747 5710 5708 5702 5705 5746 5725 5715 5744 5758 5757 5761 5770 5770 5773 5775 5784 5796 5810 5827 5836 5834 5835 5836 5838 5842 5840 5836 5831 5827 5819 5812 5809 5804 5797 5794 5792
5750 5746 5780 5791 5773 5761 5763 5749 5708 5693 5687 5714 5746 5724 5728 5752 5758 5757 5760 5753 5760 5755 5758 5774 5786 5812 5817 5812 5815 5817 5809 5809 5826 5841 5839 5833 5826 5821 5815 5810 5806 5802 5799 5798
5743 5751 5788 5786 5785 5773 5752 5735 5755 5723 5722 5700 5716 5728 5742 5751 5754 5759 5757 5748 5748 5745 5747 5753 5768 5788 5801 5807 5798 5796 5798 5799 5807 5805 5810 5827 5823 5819 5814 5809 5808 5804 5802 5800
5756 5731 5766 5779 5782 5772 5751 5756 5722 5709 5694 5687 5697 5709 5708 5733 5738 5743 5746 5740 5740 5744 5744 5755 5767 5776 5788 5796 5796 5795 5792 5788 5795 5804 5804 5806 5810 5815 5813 5808 5805 5803 5801 5798
5751 5731 5735 5758 5742 5731 5737 5715 5719 5709 5693 5679 5663 5686 5724 5727 5729 5726 5729 5731 5735 5745 5742 5747 5763 5769 5780 5778 5801 5794 5786 5782 5784 5799 5801 5802 5799 5802 5810 5809 5804 5803 5802 5798
5752 5716 5704 5727 5747 5749 5738 5729 5709 5682 5684 5684 5675 5681 5735 5724 5723 5717 5719 5719 5728 5740 5741 5746 5756 5766 5764 5756 5793 5783 5783 5785 5781 5798 5798 5797 5796 5792 5800 5810 5811 5804 5799 5796
5743 5705 5683 5696 5716 5730 5724 5723 5717 5696 5679 5678 5665 5678 5708 5714 5714 5709 5712 5716 5718 5724 5725 5731 5743 5758 5769 5768 5776 5782 5772 5774 5783 5793 5801 5800 5796 5798 5800 5803 5801 5795 5788 5787
5730 5693 5685 5666 5687 5702 5697 5711 5715 5697 5667 5676 5675 5687 5703 5699 5703 5707 5711 5715 5718 5716 5715 5718 5721 5725 5737 5745 5755 5752 5762 5769 5772 5789 5783 5786 5778 5780 5780 5777 5780 5788 5786 5782
5708 5686 5694 5691 5700 5703 5701 5703 5707 5694 5692 5679 5690 5686 5691 5693 5696 5702 5704 5705 5710 5716 5719 5716 5718 5711 5712 5713 5708 5722 5737 5734 5745 5758 5764 5763 5760 5755 5764 5768 5764 5764 5771 5777
5697 5677 5683 5676 5693 5696 5690 5696 5695 5695 5691 5690 5684 5682 5686 5694 5697 5694 5698 5704 5706 5711 5713 5715 5713 5716 5711 5708 5714 5720 5715 5704 5724 5736 5742 5743 5744 5734 5737 5743 5754 5753 5759 5768
5679 5668 5660 5650 5673 5673 5665 5675 5677 5677 5676 5675 5667 5679 5681 5688 5686 5680 5684 5690 5696 5704 5707 5712 5710 5705 5707 5703 5706 5709 5714 5721 5724 5728 5732 5735 5740 5739 5744 5725 5732 5743 5753 5759
5672 5663 5648 5650 5656 5638 5676 5683 5678 5673 5675 5673 5670 5674 5673 5677 5676 5673 5678 5681 5686 5693 5702 5704 5702 5698 5708 5706 5704 5705 5712 5721 5728 5728 5721 5720 5732 5732 5730 5730 5725 5729 5738 5747
5684 5660 5647 5639 5636 5657 5663 5670 5665 5659 5661 5666 5665 5668 5671 5668 5676 5675 5671 5678 5684 5684 5690 5700 5700 5697 5701 5705 5707 5706 5709 5714 5718 5721 5721 5722 5717 5720 5731 5723 5716 5723 5732 5733
5671 5664 5649 5631 5632 5631 5657 5669 5673 5660 5640 5658 5658 5661 5659 5659 5652 5659 5666 5669 5678 5683 5686 5688 5687 5693 5694 5694 5698 5699 5697 5701 5709 5713 5711 5716 5721 5723 5722 5713 5711 5719 5730 5732
5642 5639 5635 5627 5620 5634 5662 5669 5668 5638 5637 5656 5657 5657 5661 5648 5656 5664 5665 5665 5670 5675 5675 5680 5683 5686 5687 5687 5688 5690 5691 5694 5702 5710 5705 5709 5710 5711 5717 5711 5711 5712 5716 5726
5628 5622 5620 5616 5611 5616 5664 5658 5649 5647 5652 5654 5653 5657 5657 5661 5660 5663 5657 5658 5662 5667 5670 5674 5680 5679 5680 5681 5680 5683 5683 5685 5692 5693 5695 5699 5696 5700 5701 5701 5702 5709 5712 5718
5624 5631 5619 5616 5622 5646 5654 5656 5661 5657 5651 5653 5653 5658 5658 5656 5655 5662 5654 5655 5662 5663 5662 5665 5666 5662 5667 5669 5672 5672 5676 5679 5684 5682 5681 5686 5687 5694 5692 5693 5692 5698 5703 5705
5633 5641 5626 5629 5648 5648 5656 5658 5657 5654 5651 5657 5659 5658 5658 5654 5655 5653 5649 5652 5654 5652 5654 5657 5660 5659 5658 5661 5661 5663 5668 5673 5675 5670 5671 5673 5679 5685 5687 5683 5685 5686 5690 5690
5628 5638 5633 5626 5638 5646 5653 5654 5652 5653 5652 5650 5654 5651 5655 5651 5648 5648 5644 5647 5646 5647 5648 5649 5654 5655 5654 5655 5659 5659 5661 5661 5663 5665 5666 5670 5673 5674 5675 5677 5678 5679 5678 5677
5633 5631 5621 5613 5635 5633 5636 5643 5640 5638 5639 5636 5640 5642 5644 5642 5641 5641 5639 5640 5641 5641 5641 5642 5646 5647 5647 5649 5652 5655 5655 5658 5659 5660 5661 5662 5663 5661 5663 5667 5669 5669 5669 5664